When you browse on this site, cookies collect data to enhance your experience and personalize the content and advertising you see.
Visit our Privacy Policy to learn more. By continuing to use the site, you agree to this use of cookies and data.
  • In Germany
  • List of Countries
  • For 7 days
  • Water Temperature
  • Satellite Maps
  • Weather Map
  • Weather Widgets
  • user-avatar
    Login

    Hourly Weather Kerns

    Today, 25 April, Thursday

    Time Temperature Precipitation Wind Pressure Humidity
    00:00 +25°C° 0 mm 2 mps 758 mmHg 94%
    01:00 +25°C° 0 mm 2 mps 758 mmHg 95%
    02:00 +25°C° 0 mm 2 mps 758 mmHg 95%
    03:00 +25°C° 0 mm 2 mps 758 mmHg 96%
    04:00 +25°C° 0 mm 2 mps 757 mmHg 97%
    05:00 +25°C° 0 mm 2 mps 758 mmHg 96%
    06:00 +25°C° 0 mm 2 mps 758 mmHg 96%
    07:00 +25°C° 0 mm 2 mps 758 mmHg 96%
    08:00 +26°C° 0.1 mm 2 mps 758 mmHg 90%
    09:00 +28°C° 0.1 mm 2 mps 758 mmHg 83%
    10:00 +30°C° 0.1 mm 2 mps 759 mmHg 77%
    11:00 +31°C° 0 mm 2 mps 758 mmHg 71%
    12:00 +33°C° 0 mm 3 mps 758 mmHg 66%
    13:00 +33°C° 0 mm 3 mps 757 mmHg 61%
    14:00 +33°C° 0 mm 3 mps 757 mmHg 63%
    15:00 +33°C° 0 mm 3 mps 757 mmHg 64%
    16:00 +31°C° 0 mm 2 mps 756 mmHg 66%
    17:00 +29°C° 0 mm 2 mps 757 mmHg 75%
    18:00 +27°C° 0 mm 2 mps 757 mmHg 85%
    19:00 +25°C° 0 mm 1 mps 758 mmHg 94%
    20:00 +25°C° 0 mm 2 mps 758 mmHg 95%
    21:00 +25°C° 0 mm 2 mps 758 mmHg 96%
    22:00 +25°C° 0 mm 2 mps 759 mmHg 96%
    23:00 +25°C° 0 mm 2 mps 759 mmHg 97%

    Tomorrow, 26 April, Friday

    Time Temperature Precipitation Wind Pressure Humidity
    00:00 +25°C° 0 mm 2 mps 759 mmHg 97%
    01:00 +24°C° 0 mm 2 mps 759 mmHg 97%
    02:00 +24°C° 0 mm 2 mps 758 mmHg 97%
    03:00 +24°C° 0 mm 2 mps 758 mmHg 97%
    04:00 +24°C° 0 mm 2 mps 758 mmHg 97%
    05:00 +25°C° 0 mm 2 mps 758 mmHg 97%
    06:00 +25°C° 0 mm 2 mps 758 mmHg 97%
    07:00 +25°C° 0 mm 2 mps 758 mmHg 96%
    08:00 +27°C° 0 mm 3 mps 759 mmHg 87%
    09:00 +29°C° 0 mm 3 mps 759 mmHg 78%
    10:00 +31°C° 0 mm 3 mps 759 mmHg 69%
    11:00 +31°C° 0 mm 3 mps 758 mmHg 66%
    12:00 +33°C° 0 mm 3 mps 758 mmHg 62%
    13:00 +34°C° 0 mm 4 mps 757 mmHg 59%
    14:00 +33°C° 0 mm 4 mps 757 mmHg 62%
    15:00 +33°C° 0 mm 4 mps 756 mmHg 65%
    16:00 +32°C° 0 mm 4 mps 756 mmHg 68%
    17:00 +30°C° 0 mm 4 mps 757 mmHg 77%
    18:00 +28°C° 0 mm 3 mps 757 mmHg 85%
    19:00 +26°C° 0 mm 3 mps 758 mmHg 94%
    20:00 +26°C° 0 mm 3 mps 758 mmHg 95%
    21:00 +26°C° 0 mm 3 mps 759 mmHg 96%
    22:00 +25°C° 0 mm 3 mps 759 mmHg 96%
    23:00 +25°C° 0 mm 3 mps 759 mmHg 96%

    Day after tomorrow, 27 April, Saturday

    Time Temperature Precipitation Wind Pressure Humidity
    00:00 +25°C° 0 mm 3 mps 759 mmHg 96%
    01:00 +25°C° 0 mm 3 mps 759 mmHg 96%
    02:00 +25°C° 0 mm 3 mps 758 mmHg 96%
    03:00 +25°C° 0 mm 3 mps 758 mmHg 96%
    04:00 +25°C° 0 mm 3 mps 758 mmHg 96%
    05:00 +25°C° 0 mm 3 mps 758 mmHg 96%
    06:00 +25°C° 0 mm 3 mps 758 mmHg 95%
    07:00 +25°C° 0 mm 3 mps 759 mmHg 95%
    08:00 +27°C° 0.1 mm 4 mps 759 mmHg 89%
    09:00 +28°C° 0.1 mm 4 mps 759 mmHg 83%
    10:00 +29°C° 0.1 mm 4 mps 760 mmHg 78%
    11:00 +30°C° 0 mm 5 mps 759 mmHg 73%
    12:00 +32°C° 0 mm 5 mps 759 mmHg 69%
    13:00 +33°C° 0 mm 5 mps 758 mmHg 64%
    14:00 +33°C° 0 mm 5 mps 758 mmHg 65%
    15:00 +32°C° 0 mm 5 mps 758 mmHg 67%
    16:00 +32°C° 0 mm 5 mps 757 mmHg 68%
    17:00 +29°C° 0 mm 5 mps 758 mmHg 75%
    18:00 +28°C° 0 mm 5 mps 758 mmHg 82%
    19:00 +26°C° 0 mm 4 mps 759 mmHg 89%
    20:00 +26°C° 0.1 mm 4 mps 759 mmHg 90%
    21:00 +26°C° 0.1 mm 4 mps 760 mmHg 91%
    22:00 +26°C° 0.1 mm 4 mps 760 mmHg 92%
    23:00 +26°C° 0.1 mm 4 mps 760 mmHg 92%

    28 April, Sunday

    Time Temperature Precipitation Wind Pressure Humidity
    00:00 +26°C° 0.1 mm 4 mps 760 mmHg 93%
    01:00 +26°C° 0.1 mm 4 mps 759 mmHg 94%
    02:00 +26°C° 0.2 mm 4 mps 759 mmHg 94%
    03:00 +26°C° 0.2 mm 4 mps 759 mmHg 94%
    04:00 +25°C° 0.2 mm 4 mps 759 mmHg 95%
    05:00 +25°C° 0.3 mm 5 mps 759 mmHg 95%
    06:00 +25°C° 0.3 mm 5 mps 760 mmHg 95%
    07:00 +26°C° 0.3 mm 5 mps 760 mmHg 95%
    08:00 +26°C° 0.3 mm 5 mps 760 mmHg 92%
    09:00 +27°C° 0.3 mm 5 mps 761 mmHg 89%
    10:00 +28°C° 0.3 mm 6 mps 761 mmHg 85%
    11:00 +28°C° 0.4 mm 6 mps 760 mmHg 85%
    12:00 +28°C° 0.4 mm 6 mps 760 mmHg 84%
    13:00 +28°C° 0.4 mm 6 mps 759 mmHg 84%
    14:00 +28°C° 0.4 mm 6 mps 759 mmHg 85%
    15:00 +27°C° 0.4 mm 6 mps 759 mmHg 85%
    16:00 +27°C° 0.4 mm 6 mps 759 mmHg 86%
    17:00 +27°C° 0.2 mm 6 mps 759 mmHg 88%
    18:00 +26°C° 0.2 mm 6 mps 760 mmHg 90%
    19:00 +24°C° 0.2 mm 6 mps 760 mmHg 92%
    20:00 +24°C° 0.1 mm 6 mps 760 mmHg 91%
    21:00 +24°C° 0.1 mm 6 mps 761 mmHg 91%
    22:00 +24°C° 0.1 mm 6 mps 761 mmHg 91%
    23:00 +24°C° 0.1 mm 6 mps 761 mmHg 91%

    29 April, Monday

    Time Temperature Precipitation Wind Pressure Humidity
    00:00 +25°C° 0.1 mm 5 mps 760 mmHg 92%
    01:00 +25°C° 0.1 mm 5 mps 760 mmHg 92%
    02:00 +25°C° 0.1 mm 5 mps 759 mmHg 92%
    03:00 +24°C° 0.1 mm 6 mps 759 mmHg 92%
    04:00 +24°C° 0.1 mm 6 mps 759 mmHg 92%
    05:00 +24°C° 0.3 mm 6 mps 759 mmHg 93%
    06:00 +24°C° 0.3 mm 6 mps 760 mmHg 93%
    07:00 +26°C° 0.3 mm 6 mps 760 mmHg 94%
    08:00 +24°C° 0.4 mm 6 mps 760 mmHg 94%
    09:00 +24°C° 0.4 mm 6 mps 760 mmHg 95%
    10:00 +24°C° 0.4 mm 6 mps 761 mmHg 95%
    11:00 +26°C° 0.2 mm 6 mps 760 mmHg 91%
    12:00 +27°C° 0.2 mm 6 mps 760 mmHg 87%
    13:00 +28°C° 0.2 mm 6 mps 759 mmHg 82%
    14:00 +28°C° 0.1 mm 6 mps 759 mmHg 82%
    15:00 +28°C° 0.1 mm 6 mps 759 mmHg 82%
    16:00 +27°C° 0.1 mm 6 mps 758 mmHg 81%
    17:00 +27°C° 0.1 mm 6 mps 759 mmHg 83%
    18:00 +26°C° 0.1 mm 6 mps 759 mmHg 86%
    19:00 +26°C° 0.1 mm 6 mps 760 mmHg 88%
    20:00 +26°C° 0.2 mm 6 mps 760 mmHg 88%
    21:00 +26°C° 0.2 mm 6 mps 760 mmHg 88%
    22:00 +26°C° 0.2 mm 6 mps 761 mmHg 89%
    23:00 +26°C° 0.1 mm 6 mps 760 mmHg 89%

    30 April, Tuesday

    Time Temperature Precipitation Wind Pressure Humidity
    00:00 +26°C° 0.1 mm 6 mps 760 mmHg 90%
    01:00 +26°C° 0.1 mm 6 mps 759 mmHg 91%
    02:00 +24°C° 0.3 mm 6 mps 759 mmHg 92%
    03:00 +24°C° 0.3 mm 6 mps 759 mmHg 93%
    04:00 +24°C° 0.3 mm 6 mps 758 mmHg 93%
    05:00 +24°C° 0.2 mm 6 mps 759 mmHg 93%
    06:00 +24°C° 0.2 mm 6 mps 759 mmHg 93%
    07:00 +25°C° 0.2 mm 5 mps 760 mmHg 94%
    08:00 +26°C° 0.1 mm 6 mps 760 mmHg 88%
    09:00 +28°C° 0.1 mm 6 mps 760 mmHg 83%
    10:00 +29°C° 0.1 mm 6 mps 760 mmHg 78%
    11:00 +29°C° 0 mm 6 mps 759 mmHg 75%
    12:00 +30°C° 0 mm 6 mps 759 mmHg 71%
    13:00 +30°C° 0 mm 6 mps 758 mmHg 68%
    14:00 +30°C° 0 mm 6 mps 758 mmHg 69%
    15:00 +29°C° 0 mm 6 mps 758 mmHg 71%
    16:00 +29°C° 0 mm 6 mps 758 mmHg 72%
    17:00 +28°C° 0 mm 6 mps 758 mmHg 76%
    18:00 +27°C° 0 mm 5 mps 759 mmHg 80%
    19:00 +26°C° 0 mm 5 mps 759 mmHg 84%
    20:00 +26°C° 0 mm 5 mps 759 mmHg 86%
    21:00 +26°C° 0 mm 5 mps 760 mmHg 87%
    22:00 +26°C° 0 mm 5 mps 760 mmHg 89%
    23:00 +26°C° 0 mm 5 mps 760 mmHg 89%
    Show more